Starlink 32382

operational
NORAD ID: 61258 Int'l Des: 2024-175 Owner: SPXS Country: US Constellation: starlink
LEOCIRCULAR

Über Starlink 32382

Beschreibung wird geladen...

Live-Position

3D-Globus wird geladen...

Nächste Überflüge

Höhenverlauf

Altitude vs Time

uPlot chart will show altitude changes over time

Zweizeiliger Elementsatz

1 61258U 24175R 25352.64078653 .00011700 00000-0 40665-3 0 9990
2 61258 53.1571 210.5738 0001412 85.3045 274.8117 15.30190720 69042
Epoch: 18. Dez. 2025 • Age: 11 hours

Aktueller Status

Höhe 483.3 km
Geschwindigkeit 7.62 km/s
Subsatellitenpunkt -25.88°S, 66.22°E
Startdatum 25. Sept. 2024
Alter 1.2 years
Typ internet

Technische Details

Klassifizierung Payload
Masse 730.00 kg
Trockenmasse 700.00 kg
Gesamtmasse 730.00 kg
Länge 0.30 m
Durchmesser 4.10 m
Spannweite 29.00 m
Form Box + pan
Hersteller SPXS
Bus-Typ Starlink V2M
Phasenstatus In Orbit
Besitzer/Staat SPXS/US

Große Konstellationen

Loading constellations...